Stations météo

réclame
Mon MeteoGroup
Braunschweig, Allemagne (10348): Température de l'air & dewpoint: 29.06.2020 19:00:00 - 05.07.2020 19:00:00 (CEST)Braunschweig, Allemagne (10348): Température de l'air 5cm & Température de l'air -5cm: 29.06.2020 19:00:00 - 05.07.2020 19:00:00 (CEST)Braunschweig, Allemagne (10348): Température de l'air -20cm & Température de l'air -100cm: 29.06.2020 19:00:00 - 05.07.2020 19:00:00 (CEST)Braunschweig, Allemagne (10348): Vitesse du vent & gusts: 29.06.2020 19:00:00 - 05.07.2020 19:00:00 (CEST)Braunschweig, Allemagne (10348): Direction du vent: 29.06.2020 19:00:00 - 05.07.2020 19:00:00 (CEST)Braunschweig, Allemagne (10348): reduced air pressure: 29.06.2020 19:00:00 - 05.07.2020 19:00:00 (CEST)Braunschweig, Allemagne (10348): visibility: 29.06.2020 19:00:00 - 05.07.2020 19:00:00 (CEST)Braunschweig, Allemagne (10348): Ensoleillement: 29.06.2020 19:00:00 - 05.07.2020 19:00:00 (CEST)Braunschweig, Allemagne (10348): Quantités de précipitations: 29.06.2020 19:00:00 - 05.07.2020 19:00:00 (CEST)
Date & Time tt [°C] td [°C] tt 5cm [°C] tt -5cm [°C] tt -20cm [°C] tt -100cm [°C] ff [km/h] ff [knt] fx [km/h] fx [knt] dd ppp [hPa] vv [km] sd [min] rr [mm]
05.07.2020 19:00:00 - - - - - - - - - - - - - - -
05.07.2020 18:00:00 22,5 16,7 23,0 23,9 20,5 17,5 29 16 59 32 WSW 1008,8 67 17 0,0
05.07.2020 17:00:00 22,0 17,1 21,8 23,4 20,4 17,6 26 14 48 26 WSW 1009,1 22 0 0,0
05.07.2020 16:00:00 22,4 16,6 22,8 22,9 20,2 17,6 24 13 46 25 WSW 1009,1 75 0 0,0
05.07.2020 15:00:00 23,0 16,7 23,5 23,6 20,0 17,6 23 12 49 26 WSW 1008,8 73 0 0,0
05.07.2020 14:00:00 23,4 16,7 23,9 23,1 19,7 17,6 19 10 41 22 SW 1008,8 75 0 0,0
05.07.2020 13:00:00 23,6 16,3 25,0 25,7 19,3 17,6 24 13 58 31 SW 1008,8 75 25 0,0
05.07.2020 12:00:00 23,2 16,5 24,5 22,8 19,0 17,6 21 12 48 26 SW 1009,0 62 13 0,0
05.07.2020 11:00:00 22,8 16,3 25,1 21,7 18,7 17,6 27 14 49 26 SW 1009,1 70 7 0,0
05.07.2020 10:00:00 21,4 16,7 23,0 20,1 18,6 17,6 20 11 42 23 SW 1009,3 65 2 0,0
05.07.2020 09:00:00 20,3 16,5 20,7 19,1 18,6 17,6 18 10 33 18 SW 1009,4 75 0 0,0
05.07.2020 08:00:00 19,0 16,5 18,7 18,5 18,6 17,6 14 8 28 15 SSW 1009,5 74 0 0,0
05.07.2020 07:00:00 18,7 16,4 17,7 18,0 18,7 17,6 16 9 28 15 SSW 1009,7 57 0 0,1
05.07.2020 06:00:00 19,0 15,9 18,6 17,8 18,7 17,6 16 8 31 17 SSW 1010,0 75 0 0,0
05.07.2020 05:00:00 19,1 16,0 17,7 17,8 18,8 17,6 16 9 34 18 SW 1010,3 74 0 0,0
05.07.2020 04:00:00 19,7 15,3 19,2 17,9 18,9 17,6 17 9 32 17 SW 1010,4 72 0 0,0
05.07.2020 03:00:00 19,4 15,4 18,8 17,9 19,0 17,6 13 7 28 15 SW 1011,1 75 0 0,1
05.07.2020 02:00:00 19,8 15,0 19,2 18,0 19,2 17,7 14 8 26 14 SSW 1011,6 75 0 0,0
05.07.2020 01:00:00 19,9 14,7 19,2 18,1 19,3 17,7 15 8 27 14 SW 1012,1 75 0 0,0
05.07.2020 00:00:00 20,2 14,3 19,4 18,3 19,5 17,7 13 7 22 12 SW 1011,9 73 0 0,0
04.07.2020 23:00:00 19,3 14,9 17,7 18,6 19,6 17,7 8 4 19 10 SSW 1012,6 58 0 0,0
04.07.2020 22:00:00 19,9 14,6 19,2 18,9 19,8 17,7 11 6 29 16 WSW 1012,9 65 0 0,0
04.07.2020 21:00:00 20,4 14,5 19,9 19,4 19,9 17,7 16 8 39 21 WSW 1012,7 75 0 0,0
04.07.2020 20:00:00 21,3 14,2 20,8 20,1 20,0 17,7 12 7 29 16 WSW 1012,7 75 0 0,0
04.07.2020 19:00:00 21,6 14,2 21,9 20,7 20,0 17,7 19 10 36 19 SW 1012,6 68 0 0,0
04.07.2020 18:00:00 22,2 13,0 22,1 21,3 20,0 17,7 15 8 26 14 WSW 1012,7 75 0 0,0
04.07.2020 17:00:00 22,0 12,0 21,7 22,1 19,9 17,7 18 10 37 20 SW 1012,7 74 0 0,0
04.07.2020 16:00:00 23,0 12,4 23,9 24,3 19,5 17,8 19 11 41 22 SSW 1012,7 59 1 0,0
04.07.2020 15:00:00 22,2 11,5 24,4 24,9 19,0 17,8 24 13 42 23 SW 1013,2 50 35 0,0
04.07.2020 14:00:00 21,9 11,8 25,0 23,9 18,6 17,8 23 13 41 22 SSW 1013,6 41 24 0,0
04.07.2020 13:00:00 20,3 13,2 22,6 22,2 18,2 17,8 18 10 30 16 SSW 1014,2 75 0 0,0
04.07.2020 12:00:00 18,5 12,9 18,5 20,7 17,9 17,8 14 8 37 20 SW 1014,8 48 5 0,0
04.07.2020 11:00:00 19,6 13,0 23,0 20,7 17,6 17,8 19 10 36 19 SW 1015,0 45 12 0,0
04.07.2020 10:00:00 17,9 12,8 19,6 18,4 17,5 17,8 18 10 33 18 SW 1015,0 69 0 0,1
04.07.2020 09:00:00 17,5 11,6 16,9 16,9 17,4 17,8 19 10 29 16 SW 1015,2 57 0 0,0
04.07.2020 08:00:00 17,2 11,3 17,3 16,2 17,5 17,8 12 6 24 13 SW 1015,0 65 12 0,0
04.07.2020 07:00:00 16,0 11,4 15,7 14,7 17,7 17,8 15 8 24 13 SW 1015,0 56 32 0,0
04.07.2020 06:00:00 15,3 11,4 14,2 14,1 17,9 17,8 13 7 23 12 SSW 1015,2 51 4 0,0
04.07.2020 05:00:00 15,0 11,5 13,7 14,1 18,2 17,8 11 6 19 10 SSW 1015,6 52 0 0,0
04.07.2020 04:00:00 14,6 11,5 12,8 14,3 18,5 17,9 8 5 21 12 SSW 1015,7 47 0 0,0
04.07.2020 03:00:00 15,3 11,7 13,8 14,7 18,8 17,9 9 5 16 9 SSW 1016,0 50 0 0,0
04.07.2020 02:00:00 15,6 11,8 14,2 15,2 19,2 17,9 11 6 18 10 SSW 1016,1 53 0 0,0
04.07.2020 01:00:00 15,9 11,7 14,3 15,7 19,5 17,9 9 5 13 7 SSW 1016,1 58 0 0,0
04.07.2020 00:00:00 15,7 11,8 13,1 16,3 19,9 17,9 8 4 13 7 S 1016,4 70 0 0,0
03.07.2020 23:00:00 15,9 12,1 13,0 17,2 20,2 17,9 7 4 10 5 S 1016,4 59 0 0,0
03.07.2020 22:00:00 17,2 12,1 15,3 18,2 20,5 17,9 6 4 16 9 SSW 1016,3 69 5 0,0
03.07.2020 21:00:00 19,0 11,5 17,9 19,5 20,7 17,9 10 6 24 13 SW 1016,1 72 26 0,0
03.07.2020 20:00:00 20,0 11,1 19,5 21,2 20,8 17,9 18 10 34 18 SW 1015,8 50 60 0,0
03.07.2020 19:00:00 20,7 11,9 22,3 22,2 20,7 17,9 17 9 33 18 WSW 1015,9 38 49 0,0
03.07.2020 18:00:00 20,5 10,8 21,5 23,1 20,6 18,0 20 11 35 19 SW 1016,3 54 39 0,0
03.07.2020 17:00:00 20,5 11,9 23,5 24,1 20,3 18,0 19 11 35 19 WSW 1016,3 39 35 0,0
03.07.2020 16:00:00 21,2 11,2 25,4 25,1 19,9 18,0 22 12 41 22 WSW 1016,3 45 39 0,0
03.07.2020 15:00:00 20,5 11,8 23,5 24,4 19,5 18,0 18 10 41 22 WSW 1016,2 43 37 0,0
03.07.2020 14:00:00 20,0 11,9 22,5 23,7 19,1 18,0 17 9 38 21 WSW 1016,4 66 35 0,0
03.07.2020 13:00:00 19,8 12,8 23,6 22,3 18,9 18,0 22 12 39 21 WSW 1016,4 41 20 0,0
03.07.2020 12:00:00 18,1 12,5 19,6 21,7 18,5 18,0 13 7 27 15 WSW 1016,3 45 24 0,0
03.07.2020 11:00:00 17,8 12,1 19,5 20,9 18,2 18,0 15 8 32 17 WSW 1016,1 47 32 0,0
03.07.2020 10:00:00 16,8 12,2 17,9 20,2 18,0 18,0 18 10 27 14 W 1016,0 38 31 0,0
03.07.2020 09:00:00 16,7 13,0 19,4 18,8 17,8 18,1 14 8 23 13 WSW 1015,7 34 42 0,0
03.07.2020 08:00:00 15,5 13,2 17,7 16,8 17,9 18,1 9 5 17 9 SW 1015,3 17 55 0,0
03.07.2020 07:00:00 14,0 12,8 13,5 15,0 18,1 18,1 9 5 13 7 SW 1015,1 9 52 0,0
03.07.2020 06:00:00 13,4 12,5 12,6 14,3 18,4 18,1 7 4 15 8 WSW 1014,6 7 13 0,0
03.07.2020 05:00:00 13,6 12,8 12,5 14,8 18,7 18,1 9 5 18 10 SW 1014,2 9 0 0,0
03.07.2020 04:00:00 14,2 13,4 13,4 15,5 18,9 18,1 11 6 18 10 SW 1014,0 11 0 0,0
03.07.2020 03:00:00 14,7 13,0 13,8 16,0 19,2 18,1 10 5 23 12 W 1013,7 27 0 0,2
03.07.2020 02:00:00 14,8 13,6 14,3 16,3 19,5 18,1 13 7 19 10 WSW 1013,5 19 0 0,0
03.07.2020 01:00:00 14,6 13,4 14,0 16,5 19,8 18,1 10 5 22 12 WSW 1013,2 27 0 0,9
03.07.2020 00:00:00 15,7 12,5 15,1 17,0 20,1 18,2 14 7 25 14 WSW 1012,8 53 0 0,0
02.07.2020 23:00:00 16,5 12,4 15,8 17,7 20,4 18,2 8 5 17 9 SW 1012,4 62 0 0,0
02.07.2020 22:00:00 17,4 12,0 16,6 18,4 20,7 18,2 11 6 22 12 W 1011,8 62 0 0,0
02.07.2020 21:00:00 18,1 13,2 17,7 19,4 20,9 18,2 13 7 22 12 WNW 1011,4 51 0 0,0
02.07.2020 20:00:00 18,8 13,8 18,6 20,3 21,1 18,2 11 6 19 10 WSW 1010,7 74 2 0,0
02.07.2020 19:00:00 18,5 13,9 17,9 21,1 21,2 18,2 13 7 32 17 SW 1010,2 62 0 0,0
02.07.2020 18:00:00 21,0 12,1 21,1 22,7 21,1 18,3 18 10 33 18 WSW 1010,1 62 0 0,0
02.07.2020 17:00:00 22,2 12,1 24,0 24,8 20,8 18,3 13 7 23 13 WSW 1009,8 57 14 0,0
02.07.2020 16:00:00 22,4 12,5 27,0 26,0 20,4 18,3 12 7 26 14 SW 1009,9 41 42 0,0
02.07.2020 15:00:00 22,0 12,1 24,7 25,5 19,8 18,3 16 9 28 15 WSW 1010,1 57 36 0,0
02.07.2020 14:00:00 21,5 12,3 26,6 25,7 19,3 18,3 14 7 27 15 WSW 1010,2 60 32 0,0
02.07.2020 13:00:00 20,4 13,5 23,5 23,5 18,9 18,3 16 9 27 15 SW 1010,3 60 11 0,0
02.07.2020 12:00:00 19,1 14,0 21,3 21,2 18,6 18,3 15 8 23 13 SW 1010,3 32 0 0,0
02.07.2020 11:00:00 17,6 13,9 18,9 19,6 18,4 18,3 11 6 23 12 WSW 1010,2 30 0 0,0
02.07.2020 10:00:00 17,6 14,3 18,4 19,4 18,2 18,4 13 7 27 15 SW 1009,9 28 2 0,0
02.07.2020 09:00:00 17,4 15,5 18,9 18,7 18,1 18,4 13 7 19 10 SW 1009,6 23 0 0,0
02.07.2020 08:00:00 16,6 15,3 16,5 17,3 18,1 18,4 10 5 16 9 SW 1009,3 18 8 0,0
02.07.2020 07:00:00 15,8 14,6 16,3 15,9 18,2 18,4 9 5 14 8 SSW 1009,0 19 33 0,0
02.07.2020 06:00:00 14,5 14,2 14,4 14,8 18,5 18,4 5 3 11 6 SSW 1008,7 7 8 0,0
02.07.2020 05:00:00 14,1 13,9 12,4 14,6 18,8 18,4 7 4 11 6 SSW 1008,5 4,5 0 0,0
02.07.2020 04:00:00 14,2 13,9 12,5 15,0 19,1 18,4 8 4 12 6 SSW 1008,6 3,9 0 0,0
02.07.2020 03:00:00 14,3 14,1 12,4 15,6 19,3 18,4 5 3 13 7 S 1008,6 3,0 0 0,0
02.07.2020 02:00:00 15,8 14,8 14,5 16,3 19,6 18,4 9 5 16 9 WSW 1008,3 23 0 0,0
02.07.2020 01:00:00 16,2 15,5 15,1 17,0 19,8 18,4 8 4 19 10 SW 1008,0 25 0 0,0
02.07.2020 00:00:00 16,5 15,7 15,6 17,5 20,0 18,5 12 6 19 10 SSW 1007,7 48 0 0,1
01.07.2020 23:00:00 16,4 15,6 15,8 17,6 20,3 18,5 11 6 19 11 SSW 1007,5 64 0 0,0
01.07.2020 22:00:00 16,6 15,6 16,0 18,3 20,5 18,5 13 7 22 12 SSW 1007,0 53 12 0,0
01.07.2020 21:00:00 16,4 15,6 16,1 19,1 20,7 18,5 10 5 24 13 SSW 1006,6 42 6 2,9
01.07.2020 20:00:00 16,7 15,6 16,3 19,9 20,8 18,5 11 6 18 10 SW 1007,0 4,5 0 0,1
01.07.2020 19:00:00 17,0 16,0 17,4 20,2 20,9 18,5 8 5 25 14 WNW 1006,9 66 0 8,3
01.07.2020 18:00:00 17,1 15,8 17,0 21,5 20,9 18,5 9 5 17 9 N 1006,3 6 2 0,2
01.07.2020 17:00:00 17,2 15,8 17,8 21,5 20,8 18,5 10 5 21 12 NW 1006,6 16 0 0,1
01.07.2020 16:00:00 18,9 16,3 19,1 21,9 20,7 18,5 8 4 27 14 W 1006,8 37 0 0,0
01.07.2020 15:00:00 19,5 16,7 20,3 22,4 20,6 18,5 13 7 24 13 SW 1006,9 65 0 0,0
01.07.2020 14:00:00 18,8 16,8 18,8 22,1 20,5 18,5 11 6 24 13 SSW 1007,0 28 0 0,2
01.07.2020 13:00:00 17,8 16,4 17,8 20,9 20,4 18,5 11 6 29 16 S 1007,2 19 0 0,6
01.07.2020 12:00:00 18,2 16,1 18,4 21,3 20,4 18,5 16 9 27 15 SSW 1007,1 73 0 0,5
01.07.2020 11:00:00 17,2 15,7 17,0 20,1 20,4 18,5 14 8 26 14 SSW 1007,2 23 0 0,2
01.07.2020 10:00:00 16,7 15,2 16,6 19,6 20,5 18,5 14 7 25 13 SSW 1007,1 29 0 0,8
01.07.2020 09:00:00 17,5 14,7 17,4 19,8 20,5 18,5 16 9 26 14 SSW 1007,0 51 0 0,0
01.07.2020 08:00:00 18,7 14,4 18,5 19,7 20,6 18,6 11 6 28 15 SSW 1006,6 75 0 0,0
01.07.2020 07:00:00 18,9 14,5 18,8 19,5 20,7 18,6 15 8 30 16 SW 1006,2 64 0 0,0
01.07.2020 06:00:00 18,4 13,1 18,2 19,3 20,8 18,6 12 6 22 12 SSW 1006,2 67 0 0,0
01.07.2020 05:00:00 18,4 13,4 18,1 19,4 21,0 18,6 11 6 23 12 SW 1006,1 69 0 0,0
01.07.2020 04:00:00 18,8 12,8 18,4 19,5 21,2 18,6 14 8 23 12 WSW 1006,0 69 0 0,0
01.07.2020 03:00:00 18,5 11,0 18,1 19,6 21,4 18,6 10 5 19 11 SW 1006,3 64 0 0,0
01.07.2020 02:00:00 18,4 10,1 18,0 19,7 21,6 18,6 10 5 21 11 SSW 1006,6 75 0 0,0
01.07.2020 01:00:00 18,0 10,0 17,7 19,9 21,8 18,6 8 4 16 9 SSW 1007,0 75 0 0,0
01.07.2020 00:00:00 17,7 10,4 17,5 20,2 22,1 18,6 6 4 16 8 SW 1007,2 74 0 0,0
30.06.2020 23:00:00 17,1 11,0 16,7 20,6 22,3 18,6 6 3 14 8 S 1007,7 75 0 0,0
30.06.2020 22:00:00 16,9 10,8 16,0 21,2 22,6 18,6 2 1 14 7 S 1008,0 66 0 0,0
30.06.2020 21:00:00 18,6 9,9 18,2 22,1 22,8 18,6 10 6 21 12 W 1008,1 67 0 0,0
30.06.2020 20:00:00 19,3 9,3 18,2 23,2 22,9 18,6 7 4 25 13 WSW 1007,9 56 0 0,0
30.06.2020 19:00:00 20,6 8,1 21,2 24,5 22,9 18,6 14 8 31 17 WSW 1007,9 62 0 0,0
30.06.2020 18:00:00 21,0 7,3 21,6 25,7 22,8 18,7 15 8 31 17 WSW 1007,9 75 1 0,0
30.06.2020 17:00:00 20,7 7,5 22,6 26,4 22,6 18,7 19 11 40 22 WSW 1008,0 54 2 0,0
30.06.2020 16:00:00 20,1 7,4 21,5 26,5 22,3 18,7 21 11 49 27 W 1008,5 64 15 0,0
30.06.2020 15:00:00 19,8 7,1 22,1 27,1 21,9 18,7 25 14 43 23 WSW 1008,5 63 7 0,0
30.06.2020 14:00:00 19,4 7,5 21,7 28,7 21,3 18,7 24 13 43 23 SW 1008,7 60 35 0,0
30.06.2020 13:00:00 19,3 7,5 23,3 27,5 20,8 18,7 25 14 43 23 SW 1008,8 72 44 0,0
30.06.2020 12:00:00 17,9 7,6 21,0 25,5 20,4 18,7 27 15 49 26 SW 1008,9 73 24 0,0
30.06.2020 11:00:00 17,2 7,9 19,5 22,7 20,1 18,7 24 13 45 24 SW 1009,0 42 10 0,0
30.06.2020 10:00:00 16,9 8,1 19,9 21,5 20,0 18,7 22 12 44 24 SW 1009,1 52 39 0,0
30.06.2020 09:00:00 15,6 7,4 17,1 20,3 19,9 18,7 25 13 44 24 SW 1009,1 65 29 0,0
30.06.2020 08:00:00 15,6 7,3 18,1 18,5 20,0 18,7 21 12 36 20 SW 1009,1 60 49 0,0
30.06.2020 07:00:00 14,3 7,2 14,4 16,4 20,2 18,7 13 7 25 14 SSW 1009,0 55 25 0,0
30.06.2020 06:00:00 13,9 7,3 13,3 16,0 20,6 18,7 15 8 23 12 SW 1009,0 61 0 0,0
30.06.2020 05:00:00 13,1 7,0 11,4 15,7 21,0 18,7 10 5 17 9 SSW 1009,0 65 0 0,0
30.06.2020 04:00:00 14,4 6,7 13,0 16,5 21,4 18,7 11 6 22 12 SW 1009,2 59 0 0,0
30.06.2020 03:00:00 13,6 6,8 11,8 16,5 21,9 18,7 9 5 22 12 SW 1009,4 73 0 0,0
30.06.2020 02:00:00 12,6 7,2 10,2 17,2 22,4 18,7 6 4 14 7 S 1009,8 60 0 0,0
30.06.2020 01:00:00 14,0 7,3 11,7 18,3 22,9 18,7 10 5 14 8 SSW 1010,0 67 0 0,0
30.06.2020 00:00:00 14,4 8,1 11,6 19,5 23,4 18,8 7 4 13 7 S 1010,1 63 0 0,0
29.06.2020 23:00:00 15,8 7,9 13,7 20,8 23,9 18,8 8 5 15 8 SW 1010,1 63 0 0,0
29.06.2020 22:00:00 17,9 6,9 16,0 22,4 24,2 18,8 10 5 21 11 WSW 1009,9 64 18 0,0
29.06.2020 21:00:00 19,7 6,7 19,3 24,7 24,4 18,8 13 7 25 13 WSW 1009,8 63 58 0,0
29.06.2020 20:00:00 20,6 7,3 21,0 26,8 24,4 18,8 14 7 34 19 WSW 1009,6 62 48 0,0
29.06.2020 19:00:00 21,6 7,2 23,7 29,2 24,2 18,8 22 12 37 20 W 1009,5 75 60 0,0

tt = Température de l'air
td = dewpoint
tt 5cm = Température de l'air 5cm
tt -5cm = Température de l'air -5cm
tt -20cm = Température de l'air -20cm
tt -100cm = Température de l'air -100cm
ff = Vitesse du vent
fx = gusts
dd = Direction du vent
ppp = reduced air pressure
vv = visibility
sd = Ensoleillement
rr = Quantités de précipitations

stations d'obs. à proximité